H-2A DEB, 38347

Orbit data source: Space-Track

H-2A DEB, 38347 is space debris in SSO originally from a launch on Thu, 17 May 2012 UTC launched from the Tanegashima Space Center (TNSTA). Debris objects in space refer to the collection of defunct objects orbiting the Earth. Examples of debris include non-operational satellites, rocket bodies, and fragments generated from explosions, collisions, or faulty payload assembly.

Loading next visibility...
Identifier
38347, 2012-025H
Orbit
SSO
Country
Flag of JPJP / JPN
Related business
Manufacturer
Kawasaki
Mission
Spacecraft
Bus & Motor
Unknown
Mass
~100 kg wet, ~100 kg dry
Launch date (UTC)
2012-05-17 (14 years ago)
Launch vehicle
Unknown
Launch site
Tanegashima Space Center (TNSTA)
Object type
Payload
Rocket body
Debris
Shape & HBR
Half Cyl, 2.8 m
Radar Cross Section
13.425 m², Large (>1 m²)

Expand to show TLE details & history
Last TLE update: 9 hours ago

TLE from 9 hours ago
0 H-2A DEB
1 38347U 12025H   26263.64815881  .00002461  00000-0  23708-3 0  9991
2 38347  98.2166  40.4907 0006656 152.3581 207.7993 14.93931806773054
Epoch: 2026-09-20T15:33Z
TLE epoch observation values (Epoch: 2026-09-20T15:33:20.921Z)
Latitude
0.00003°
Longitude
167.6142°
Altitude
592.823 km
Speed
7.561 km/s
True Right ascension
02h 41m 57s
True Declination
0° 00' 00"
Sunlit
Object was in full shadow at epoch
Visualization orbit readout
Latitude
Unknown
Longitude
Unknown
Altitude
Unknown
Speed
Unknown
Apparent Right ascension
Unknown
Apparent Declination
Unknown
Sunlit
N/A
Visualization observer readout
Local Sidereal Time
18:02:07
Azimuth
Unknown
Elevation
Unknown
Doppler factor
Unknown
Orbital elements
Apogee altitude
587.36 km
Perigee altitude
578.094 km
Semi-major axis
6,960.864 km
Eccentricity
0.00067
Inclination
98.2166°
RAAN
40.4907°
Arg. of periapsis
152.3581°
True anomaly
207.76375°
Mean anomaly
207.7993°
Eccentric anomaly
207.78152°
Mean motion
3.73722 °/min
Orbital period
96.33 mins
BSTAR
0.00023708
Loading maneuver chart data...
Computing Atmospheric mass density...

Documentation

Showing up to 5 results
|